Powrót do katalogu

STARLINK-11078

AktywnyŁącznośćVLEO
NORAD 58710·PAYLOAD·🇺🇸 United States

Wystrzelony Jan 3, 2024 z Vandenberg Space Force Base

Loading…

Następne Przeloty (najbliższe 24 godziny)

TLE

ŚwieżeSource: CelesTrak SupGP

Epoka: Sep 15, 2026, 02:40 UTC

1 58710C 24002F   26258.11159722 -.00081618  00000+0 -67185-3 0  2583
2 58710  53.1572  60.0671 0001047  81.2348 169.0894 15.69766800    10

Śledź STARLINK-11078 w czasie rzeczywistym z AllMySat

Download on the App Store